Winchester, VA

5:31 PM EST on February 07, 2016 (GMT -0500)
Winchester Regional

Weather History for KOKV - October, 2012

Change the Weather History Date:

Saturday, October 6, 2012

  Actual Average Record
Temperature  
Mean Temperature 56 °F -  
Max Temperature 69 °F 68 °F 87 °F (1997)
Min Temperature 44 °F 47 °F 35 °F (2004)
Degree Days  
Heating Degree Days 8    
Growing Degree Days 6 (Base 50)    
Moisture  
Dew Point 51 °F    
Average Humidity 78    
Maximum Humidity 94    
Minimum Humidity 55    
Precipitation  
Precipitation 0.00 in - - ()
Sea Level Pressure  
Sea Level Pressure 29.95 in    
Wind  
Wind Speed 6 mph (West)    
Max Wind Speed 30 mph    
Max Gust Speed 31 mph    
Visibility 10 miles    
Events      
Averages and records for this station are not official NWS values.
T = Trace of Precipitation, MM = Missing Value Source: NWS Daily Summary

Daily Weather History Graph

Daily Weather History Graph

Search for Another Location

Airport or City:

Trip Planner

Search our weather history database for the weather conditions in past years. The results will help you decide how hot, cold, wet, or windy it might be!

Date:

Astronomy

Oct. 06, 2012 Rise Set
Actual Time 7:13 AM EDT 6:46 PM EDT
Civil Twilight 6:47 AM EDT 7:13 PM EDT
Nautical Twilight 6:16 AM EDT 7:44 PM EDT
Astronomical Twilight 5:44 AM EDT 8:15 PM EDT
Moon 11:02 PM EDT (10/6) 1:04 PM EDT (10/6)
Length of Visible Light 12h 26m
Length of Day
11h 32m
Waning Gibbous, 65% of the Moon is Illuminated
Oct 6
Waning Gibbous
Oct 8
Last Quarter
Oct 15
New
Oct 21
First Quarter
Oct 29
Full

Hourly Weather History & Observations

Time (EDT) Temp. Windchill Dew Point Humidity Pressure Visibility Wind Dir Wind Speed Gust Speed Precip Events Conditions
12:55 AM 60.8 °F - 57.2 °F 88% 29.93 in 10.0 mi SW 3.5 mph - N/A   Clear
1:15 AM 59.0 °F - 57.2 °F 94% 29.93 in 10.0 mi SW 3.5 mph - N/A   Clear
1:35 AM 57.2 °F - 55.4 °F 94% 29.92 in 10.0 mi South 3.5 mph - N/A   Clear
1:55 AM 59.0 °F - 57.2 °F 94% 29.92 in 10.0 mi Calm Calm - N/A   Mostly Cloudy
2:15 AM 59.0 °F - 55.4 °F 88% 29.92 in 10.0 mi SSW 3.5 mph - N/A   Scattered Clouds
2:35 AM 59.0 °F - 57.2 °F 94% 29.91 in 10.0 mi SW 4.6 mph - N/A   Scattered Clouds
2:55 AM 59.0 °F - 57.2 °F 94% 29.90 in 10.0 mi SW 4.6 mph - N/A   Scattered Clouds
3:15 AM 59.0 °F - 55.4 °F 88% 29.89 in 10.0 mi SW 3.5 mph - N/A   Scattered Clouds
3:35 AM 59.0 °F - 55.4 °F 88% 29.89 in 10.0 mi Calm Calm - N/A   Scattered Clouds
3:55 AM 59.0 °F - 55.4 °F 88% 29.88 in 10.0 mi WSW 3.5 mph - N/A   Scattered Clouds
4:15 AM 59.0 °F - 55.4 °F 88% 29.88 in 10.0 mi West 4.6 mph - N/A   Mostly Cloudy
4:35 AM 59.0 °F - 55.4 °F 88% 29.88 in 10.0 mi WSW 4.6 mph - N/A   Mostly Cloudy
4:55 AM 59.0 °F - 55.4 °F 88% 29.88 in 10.0 mi WSW 4.6 mph - N/A   Scattered Clouds
5:15 AM 60.8 °F - 55.4 °F 82% 29.87 in 10.0 mi WSW 5.8 mph - N/A   Scattered Clouds
5:35 AM 60.8 °F - 55.4 °F 82% 29.86 in 10.0 mi SW 6.9 mph - N/A   Clear
5:55 AM 60.8 °F - 55.4 °F 82% 29.87 in 10.0 mi SW 4.6 mph - N/A   Clear
6:15 AM 59.0 °F - 55.4 °F 88% 29.87 in 10.0 mi SW 4.6 mph - N/A   Clear
6:35 AM 59.0 °F - 55.4 °F 88% 29.86 in 10.0 mi SSW 4.6 mph - N/A   Scattered Clouds
6:55 AM 59.0 °F - 55.4 °F 88% 29.86 in 10.0 mi SSW 4.6 mph - N/A   Scattered Clouds
7:15 AM 59.0 °F - 55.4 °F 88% 29.86 in 10.0 mi SSW 4.6 mph - N/A   Scattered Clouds
7:35 AM 59.0 °F - 55.4 °F 88% 29.85 in 10.0 mi SSW 4.6 mph - N/A   Scattered Clouds
7:55 AM 59.0 °F - 55.4 °F 88% 29.86 in 10.0 mi SW 4.6 mph - N/A   Scattered Clouds
8:15 AM 60.8 °F - 55.4 °F 82% 29.86 in 10.0 mi SW 4.6 mph - N/A   Scattered Clouds
8:35 AM 62.6 °F - 57.2 °F 82% 29.85 in 10.0 mi SSW 4.6 mph - N/A   Clear
8:55 AM 62.6 °F - 59.0 °F 88% 29.86 in 10.0 mi SW 5.8 mph - N/A   Clear
9:35 AM 66.2 °F - 59.0 °F 78% 29.87 in 10.0 mi SW 5.8 mph - N/A   Clear
10:15 AM 66.2 °F - 59.0 °F 78% 29.87 in 10.0 mi SW 6.9 mph - N/A   Scattered Clouds
10:35 AM 68.0 °F - 59.0 °F 73% 29.87 in 10.0 mi West 9.2 mph - N/A   Scattered Clouds
10:55 AM 69.8 °F - 59.0 °F 68% 29.87 in 10.0 mi WSW 4.6 mph - N/A   Mostly Cloudy
11:15 AM 68.0 °F - 59.0 °F 73% 29.88 in 10.0 mi NW 10.4 mph - N/A   Overcast
11:35 AM 66.2 °F - 57.2 °F 73% 29.89 in 10.0 mi NW 9.2 mph 17.3 mph N/A   Mostly Cloudy
11:55 AM 64.4 °F - 57.2 °F 77% 29.91 in 10.0 mi NNW 18.4 mph 25.3 mph N/A   Mostly Cloudy
12:15 PM 62.6 °F - 53.6 °F 72% 29.92 in 10.0 mi NW 20.7 mph 28.8 mph N/A   Overcast
12:35 PM 60.8 °F - 51.8 °F 72% 29.93 in 10.0 mi NW 16.1 mph 25.3 mph N/A   Overcast
12:55 PM 60.8 °F - 51.8 °F 72% 29.94 in 10.0 mi NW 19.6 mph 24.2 mph N/A   Overcast
1:15 PM 60.8 °F - 50.0 °F 68% 29.95 in 10.0 mi WNW 16.1 mph 25.3 mph N/A   Overcast
1:35 PM 62.6 °F - 50.0 °F 63% 29.94 in 10.0 mi NW 23.0 mph 31.1 mph N/A   Unknown
1:55 PM 64.4 °F - 50.0 °F 59% 29.95 in 10.0 mi WNW 16.1 mph 20.7 mph N/A   Scattered Clouds
2:15 PM 62.6 °F - 50.0 °F 63% 29.95 in 10.0 mi NW 23.0 mph 28.8 mph N/A   Unknown
2:35 PM 62.6 °F - 48.2 °F 59% 29.95 in 10.0 mi WNW 29.9 mph - N/A   Clear
2:55 PM 60.8 °F - 46.4 °F 59% 29.97 in 10.0 mi NW 21.9 mph 28.8 mph N/A   Scattered Clouds
3:15 PM 60.8 °F - 46.4 °F 59% 29.98 in 10.0 mi NW 17.3 mph 25.3 mph N/A   Unknown
3:35 PM 60.8 °F - 46.4 °F 59% 29.99 in 10.0 mi NW 16.1 mph 20.7 mph N/A   Unknown
3:55 PM 59.0 °F - 46.4 °F 63% 29.99 in 10.0 mi West 13.8 mph - N/A   Unknown
4:15 PM 59.0 °F - 46.4 °F 63% 29.99 in 10.0 mi NW 13.8 mph 19.6 mph N/A   Unknown
4:35 PM 59.0 °F - 46.4 °F 63% 29.99 in 10.0 mi NW 11.5 mph - N/A   Scattered Clouds
4:55 PM 59.0 °F - 44.6 °F 59% 29.98 in 10.0 mi NW 6.9 mph - N/A   Scattered Clouds
5:15 PM 59.0 °F - 44.6 °F 59% 29.99 in 10.0 mi WNW 9.2 mph - N/A   Mostly Cloudy
5:35 PM 59.0 °F - 44.6 °F 59% 29.99 in 10.0 mi WNW 10.4 mph - N/A   Scattered Clouds
5:55 PM 59.0 °F - 42.8 °F 55% 29.99 in 10.0 mi West 8.1 mph - N/A   Clear
6:15 PM 57.2 °F - 42.8 °F 59% 30.00 in 10.0 mi WNW 8.1 mph - N/A   Clear
6:35 PM 55.4 °F - 42.8 °F 63% 30.00 in 10.0 mi WNW 6.9 mph - N/A   Scattered Clouds
7:15 PM 51.8 °F - 42.8 °F 71% 30.02 in 10.0 mi Calm Calm - N/A   Scattered Clouds
7:35 PM 50.0 °F - 44.6 °F 82% 30.02 in 10.0 mi Calm Calm - N/A   Scattered Clouds
7:55 PM 50.0 °F - 44.6 °F 82% 30.03 in 10.0 mi Calm Calm - N/A   Clear
8:15 PM 48.2 °F - 44.6 °F 87% 30.04 in 10.0 mi Calm Calm - N/A   Clear
8:35 PM 51.8 °F - 42.8 °F 71% 30.05 in 10.0 mi Calm Calm - N/A   Clear
8:55 PM 51.8 °F - 42.8 °F 71% 30.05 in 10.0 mi West 4.6 mph - N/A   Clear
9:15 PM 46.4 °F 43.5 °F 42.8 °F 87% 30.06 in 10.0 mi West 5.8 mph - N/A   Clear
9:35 PM 48.2 °F - 42.8 °F 82% 30.07 in 10.0 mi SE 3.5 mph - N/A   Clear
9:55 PM 46.4 °F - 42.8 °F 87% 30.07 in 10.0 mi Calm Calm - N/A   Mostly Cloudy
10:15 PM 46.4 °F 45.2 °F 42.8 °F 87% 30.08 in 10.0 mi WNW 3.5 mph - N/A   Mostly Cloudy
10:35 PM 46.4 °F 44.3 °F 42.8 °F 87% 30.08 in 10.0 mi WNW 4.6 mph - N/A   Mostly Cloudy
10:55 PM 44.6 °F - 41.0 °F 87% 30.08 in 10.0 mi Calm Calm - N/A   Scattered Clouds
11:15 PM 44.6 °F - 42.8 °F 93% 30.09 in 10.0 mi Calm Calm - N/A   Clear
11:35 PM 44.6 °F 40.7 °F 42.8 °F 93% 30.08 in 10.0 mi NW 6.9 mph - N/A   Clear
11:55 PM 46.4 °F 44.3 °F 42.8 °F 87% 30.07 in 10.0 mi WNW 4.6 mph - N/A   Clear